#timestamp,LO_Frequency,Hit,StdDev 
1672624815.5,286047001.5,N
1672624835.3,286047002.5,N
1672624855.2,286047002.5,N
1672624875.0,286047004.3,Y
1672624875.9,286047004.3,P
1672624895.7,286047000.4,N
1672624915.6,286047000.7,N
1672624935.4,286047002.3,N
1672624955.2,286047000.6,N
1672624975.1,286047002.8,N
1672624976.0,286047002.8,N
1672624995.8,286047000.2,N
1672625015.6,286047001.4,N
1672625035.5,286047004.3,Y
1672625055.3,286046999.9,P
1672625075.2,286046999.7,N
1672625095.9,286047002.1,N
1672625115.7,286047002.1,N
1672625135.6,286046999.8,N
1672625155.4,286047001.8,N
1672625175.2,286047002.1,N
1672625195.1,286047001.0,N
1672625196.0,286047001.0,N
1672625215.8,286047001.5,N
1672625235.6,286047002.4,N
1672625255.5,286047000.9,N
1672625275.3,286047000.2,N
1672625295.1,286047002.3,N
1672625315.9,286047002.6,N
1672625335.7,286046999.8,N
1672625355.5,286047000.7,N
1672625375.4,286047000.0,N
1672625395.2,286046999.7,N
1672625415.0,286047002.0,N
1672625415.9,286047002.0,N
1672625435.8,286047001.8,N
1672625455.6,286047002.2,N
1672625475.4,286047002.2,N
1672625495.3,286047003.2,Y
1672625515.1,286047002.1,P
1672625516.0,286047002.1,P
1672625535.8,286047002.2,P
1672625555.7,286047002.6,Y
1672625575.5,286047000.9,P
1672625595.3,286047000.3,N
1672625615.2,286047001.0,N
1672625635.9,286046998.9,N
1672625655.7,286046998.9,N
1672625675.6,286046999.4,N
1672625695.4,286046998.3,N
1672625715.2,286047000.0,N
1672625735.1,286047002.8,N
1672625736.0,286047002.8,N
1672625755.8,286047004.3,N
1672625775.6,286047002.1,N
1672625795.5,286047002.3,N
1672625815.3,286047004.0,N
1672625835.1,286047001.3,N
1672625855.9,286047003.4,N
1672625875.7,286047005.8,Y
1672625895.5,286047003.8,P
1672625915.4,286047001.8,N
1672625935.2,286047004.4,P
1672625955.0,286047003.7,N
1672625955.9,286047003.7,Y
1672625975.8,286047000.3,P
1672625995.6,286046998.6,N
1672626015.4,286047000.7,N
1672626035.3,286046998.6,N
1672626055.1,286046999.0,N
1672626075.8,286047000.7,N
1672626095.7,286046998.2,N
1672626115.5,286047000.9,N
1672626135.3,286046999.9,N
1672626155.2,286047002.3,N
1672626175.0,286047001.9,N
1672626175.9,286047001.9,N
1672626195.7,286047001.7,N
1672626215.6,286047001.6,N
1672626235.4,286047002.3,N
1672626255.2,286047001.3,N
1672626275.1,286047004.2,N
1672626276.0,286047004.2,N
1672626295.8,286047003.9,N
1672626315.6,286047003.3,N
1672626335.5,286047003.2,N
1672626355.3,286047003.2,N
1672626375.1,286047003.7,N
1672626395.9,286047003.5,N
1672626415.7,286047003.2,N
1672626435.5,286047003.4,N
1672626455.4,286047004.8,N
1672626475.2,286047005.6,Y
1672626495.0,286047004.4,P
1672626495.9,286047004.4,P
1672626515.8,286047004.4,P
1672626535.6,286047004.4,Y
1672626555.4,286046998.4,P
1672626575.3,286046999.3,N
1672626595.1,286046999.5,N
1672626615.8,286046998.6,N
1672626635.7,286046998.2,N
1672626655.5,286046999.1,N
1672626675.3,286046999.1,N
1672626695.2,286046998.8,N
1672626715.0,286047001.1,N
1672626715.9,286047001.1,N
1672626735.7,286046998.2,N
1672626755.6,286046999.0,N
1672626775.4,286046997.3,N
1672626795.2,286046998.4,N
1672626815.1,286046998.3,N
1672626816.0,286046998.3,N
1672626835.8,286047000.9,N
1672626855.6,286047000.9,N
1672626875.5,286047000.1,N
1672626895.3,286047002.8,N
1672626915.1,286047002.3,N
1672626935.9,286046999.9,N
1672626955.7,286046999.8,N
1672626975.5,286047003.0,N
1672626995.4,286047004.4,N
1672627015.2,286047002.2,N
1672627035.0,286047003.4,N
1672627035.9,286047003.4,N
1672627055.8,286047001.8,N
1672627075.6,286047001.3,N
1672627095.4,286047001.4,N
1672627115.3,286047003.9,N
1672627135.1,286047003.0,N
1672627155.8,286047005.7,N
1672627175.7,286047003.4,N
1672627195.5,286047003.6,N
1672627215.3,286047005.9,N
1672627235.2,286047003.4,N
1672627255.0,286047003.4,N
1672627255.9,286047003.4,N
1672627275.7,286047003.9,N
1672627295.6,286047001.9,N
1672627315.4,286047000.4,N
1672627335.2,286047000.4,N
1672627355.1,286047000.6,N
1672627356.0,286047000.6,N
1672627375.8,286047000.6,N
1672627395.6,286047001.0,N
1672627415.5,286047000.3,N
1672627435.3,286047000.5,N
1672627455.1,286047000.8,N
1672627475.9,286047000.0,N
1672627495.7,286047000.1,N
1672627515.5,286046999.9,N
1672627535.4,286047002.6,N
1672627555.2,286047001.3,N
1672627575.0,286047002.7,N
1672627575.9,286047002.7,N
1672627595.8,286047002.3,N
1672627615.6,286047003.7,N
1672627635.4,286047004.3,N
1672627655.3,286047001.8,N
1672627675.1,286047001.8,N
1672627695.8,286047001.7,N
1672627715.7,286047004.3,N
1672627735.5,286047003.2,N
1672627755.3,286047001.8,N
1672627775.2,286047003.7,N
1672627795.0,286047005.4,Y
1672627795.9,286047005.4,P
1672627815.7,286047001.8,N
1672627835.6,286047004.1,N
1672627855.4,286047003.8,N
1672627875.2,286047004.1,N
1672627895.1,286047001.8,N
1672627896.0,286047001.8,N
1672627915.8,286047002.2,N
1672627935.7,286047001.7,N
1672627955.5,286047001.4,N
1672627975.3,286047003.9,N
1672627995.2,286047004.4,Y
1672628015.9,286047000.1,P
1672628035.7,286046998.3,N
1672628055.6,286046998.4,N
1672628075.4,286046999.1,N
1672628095.2,286046999.5,N
1672628115.1,286046998.8,N
1672628116.0,286046998.8,N
1672628135.8,286046999.1,N
1672628155.6,286046996.5,N
1672628175.5,286046998.4,N
1672628195.3,286047000.8,N
1672628215.1,286047001.1,N
1672628235.9,286047000.1,N
1672628255.7,286047000.6,N
1672628275.5,286047001.0,N
1672628295.4,286047000.5,N
1672628315.2,286047000.7,N
1672628335.0,286046998.8,N
1672628335.9,286046998.8,N
1672628355.8,286046999.3,N
1672628375.6,286047001.1,N
1672628395.4,286046998.7,N
